Weather History for Lovelock, NV

Change the Weather History Date:

Sunday, August 25, 2013

  Actual Average Record
Temperature  
Mean Temperature 66 °F -  
Max Temperature 88 °F 89 °F 102 °F (2007)
Min Temperature 44 °F 51 °F 36 °F (1960)
Cooling Degree Days 1    
Growing Degree Days 16 (Base 50)    
Moisture  
Dew Point 31 °F    
Average Humidity 27    
Maximum Humidity 50    
Minimum Humidity 12    
Precipitation  
Precipitation 0.00 in - - ()
Sea Level Pressure  
Sea Level Pressure 29.89 in    
Wind  
Wind Speed 5 mph (West)    
Max Wind Speed 18 mph    
Max Gust Speed 23 mph    
Visibility 6 miles    
Events      
Averages and records for this station are not official NWS values.
T = Trace of Precipitation, MM = Missing Value Source: NWS Daily Summary

Daily Weather History Graph

Daily Weather History Graph

Search for Another Location

Airport:

Trip Planner

Search our weather history database for the weather conditions in past years. The results will help you decide how hot, cold, wet, or windy it might be!

Date:

Astronomy

Aug. 25, 2013 Rise Set
Actual Time 6:15 AM PDT 7:36 PM PDT
Civil Twilight 5:47 AM PDT 8:04 PM PDT
Nautical Twilight 5:13 AM PDT 8:38 PM PDT
Astronomical Twilight 4:37 AM PDT 9:13 PM PDT
Moon 10:10 PM PDT (8/25) 11:22 AM PDT (8/25)
Length of Visible Light 14h 16m
Length of Day
13h 20m
Waning Gibbous, 75% of the Moon is Illuminated
Aug 25
Waning Gibbous
Aug 28
Last Quarter
Sep 5
New
Sep 12
First Quarter
Sep 19
Full

Hourly Weather History & Observations

Time (PDT) Temp. Windchill Dew Point Humidity Pressure Visibility Wind Dir Wind Speed Gust Speed Precip Events Conditions
12:53 AM 57.9 °F - 27.0 °F 31% 29.85 in 7.0 mi Calm Calm - N/A   Overcast
1:53 AM 55.0 °F - 27.0 °F 34% 29.85 in 7.0 mi NNE 4.6 mph - N/A   Overcast
2:53 AM 46.9 °F - 24.1 °F 41% 29.88 in 7.0 mi SSW 3.5 mph - N/A   Overcast
3:53 AM 46.9 °F - 25.0 °F 42% 29.88 in 9.0 mi WNW 4.6 mph - N/A   Overcast
4:53 AM 48.9 °F - 28.9 °F 46% 29.88 in 10.0 mi ESE 4.6 mph - N/A   Overcast
5:53 AM 44.1 °F 42.5 °F 26.1 °F 49% 29.90 in 10.0 mi SE 3.5 mph - N/A   Overcast
6:53 AM 48.9 °F - 30.9 °F 50% 29.92 in 9.0 mi WNW 4.6 mph - N/A   Overcast
7:53 AM 52.0 °F - 30.0 °F 43% 29.94 in 9.0 mi Calm Calm - N/A   Overcast
8:53 AM 63.0 °F - 34.0 °F 34% 29.92 in 10.0 mi Calm Calm - N/A   Overcast
9:53 AM 70.0 °F - 34.0 °F 27% 29.92 in 10.0 mi Calm Calm - N/A   Overcast
10:53 AM 75.9 °F - 34.0 °F 22% 29.91 in 10.0 mi Calm Calm - N/A   Overcast
11:17 AM 77.0 °F - 30.9 °F 19% 30.01 in 2.5 mi Calm Calm - N/A   Haze
11:53 AM 79.0 °F - 33.1 °F 19% 29.90 in 2.0 mi South 3.5 mph - N/A   Haze
12:53 PM 82.0 °F - 32.0 °F 16% 29.88 in 2.5 mi West 9.2 mph - N/A   Haze
1:26 PM 82.9 °F - 30.9 °F 15% 29.97 in 3.0 mi SW 11.5 mph - N/A   Haze
1:53 PM 84.0 °F - 30.0 °F 14% 29.86 in 3.0 mi South 9.2 mph - N/A   Haze
2:53 PM 88.0 °F - 30.0 °F 12% 29.84 in 5.0 mi WSW 17.3 mph 23.0 mph N/A   Haze
3:53 PM 84.9 °F - 28.9 °F 13% 29.83 in 5.0 mi WSW 17.3 mph - N/A   Haze
4:53 PM 86.0 °F - 28.9 °F 13% 29.82 in 3.0 mi WSW 18.4 mph 23.0 mph N/A   Haze
5:18 PM 84.0 °F - 30.0 °F 14% 29.91 in 2.5 mi West 12.7 mph 19.6 mph N/A   Haze
5:53 PM 82.9 °F - 32.0 °F 16% 29.84 in 2.5 mi West 12.7 mph 23.0 mph N/A   Haze
6:03 PM 82.9 °F - 33.1 °F 17% 29.92 in 3.0 mi West 12.7 mph - N/A   Haze
6:26 PM 80.1 °F - 35.1 °F 20% 29.92 in 5.0 mi NW 15.0 mph - N/A   Haze
6:53 PM 79.0 °F - 36.0 °F 21% 29.85 in 5.0 mi NW 15.0 mph - N/A   Haze
7:53 PM 73.0 °F - 36.0 °F 26% 29.88 in 7.0 mi NNE 4.6 mph - N/A   Overcast
8:53 PM 66.9 °F - 36.0 °F 32% 29.89 in 7.0 mi North 6.9 mph - N/A   Clear
9:53 PM 62.1 °F - 33.1 °F 34% 29.91 in 7.0 mi ESE 4.6 mph - N/A   Clear
10:53 PM 63.0 °F - 35.1 °F 35% 29.91 in 7.0 mi NE 4.6 mph - N/A   Partly Cloudy
11:53 PM 55.9 °F - 33.1 °F 42% 29.92 in 7.0 mi East 9.2 mph - N/A   Scattered Clouds